CZ-6A DEB, 54463

Orbit data source: Space-Track

CZ-6A DEB, 54463 is space debris in SSO originally from a launch on Fri, 11 Nov 2022 UTC launched from the Taiyaun Space Center, China (TSC). Debris objects in space refer to the collection of defunct objects orbiting the Earth. Examples of debris include non-operational satellites, rocket bodies, and fragments generated from explosions, collisions, or faulty payload assembly.

Loading next visibility...
Identifier
54463, 2022-151GP
Orbit
SSO
Country
Flag of CNCN / PRC
Related business
Manufacturer
SAST
Mission
Spacecraft
Bus & Motor
Unknown
Mass
Unknown
Launch date (UTC)
2022-11-11 (4 years ago)
Launch vehicle
Unknown
Launch site
Taiyaun Space Center, China (TSC)
Object type
Payload
Rocket body
Debris
Shape & HBR
Unknown shape, 0.1 m
Radar Cross Section
Medium (>0.1 m² and <1 m²)

Expand to show TLE details & history
Last TLE update: 6 hours ago

TLE from 6 hours ago
0 CZ-6A DEB
1 54463U 22151GP  26237.51735222  .00002501  00000-0  38255-3 0  9994
2 54463  98.6572 333.3666 0122205   0.5982 359.5346 14.69854202201387
Epoch: 2026-08-25T12:24Z
TLE epoch observation values (Epoch: 2026-08-25T12:24:59.231Z)
Latitude
-0.00009°
Longitude
173.33625°
Altitude
578.475 km
Speed
7.617 km/s
True Right ascension
22h 13m 27s
True Declination
0° 00' 00"
Sunlit
Object was in full shadow at epoch
Visualization orbit readout
Latitude
Unknown
Longitude
Unknown
Altitude
Unknown
Speed
Unknown
Apparent Right ascension
Unknown
Apparent Declination
Unknown
Sunlit
N/A
Visualization observer readout
Local Sidereal Time
09:57:04
Azimuth
Unknown
Elevation
Unknown
Doppler factor
Unknown
Orbital elements
Apogee altitude
744.615 km
Perigee altitude
572.63 km
Semi-major axis
7,036.76 km
Eccentricity
0.01222
Inclination
98.6572°
RAAN
333.3666°
Arg. of periapsis
0.5982°
True anomaly
359.52305°
Mean anomaly
359.5346°
Eccentric anomaly
359.52884°
Mean motion
3.67692 °/min
Orbital period
97.91 mins
BSTAR
0.00038255
Loading maneuver chart data...
Computing Atmospheric mass density...
Loading historical data...
Loading historical data...
Loading historical data...
Loading historical data...
Loading historical data...
Loading historical data...
Loading historical data...

Documentation

Showing up to 5 results
|